Location: B?dimalle
(17.1788°N, 80.5377°E)
Time: 10:00:20
(UTC+00:00)

Tiros 1 despin weight - Pass Details

Date: 22 February 2026
Orbit: 556 x 593 km, 48.2° (Epoch: 10 March)

Event Time Altitude Azimuth Distance (km) Brightness Sun altitude
Rises 15:55:11 0° 311° (NW) 2,729 - -46.7°
Reaches altitude 10° 15:57:28 10° 306° (NW) 1,837 - -47.2°
Maximum altitude 16:01:32 50° 230° (SW) 715 - -48.2°
Drops below altitude 10° 16:05:38 10° 154° (SSE) 1,854 - -49.2°
Sets 16:07:57 0° 149° (SSE) 2,756 - -49.7°
